This demonstration page uses our WeatherBlox Daily Observations layout. Learn more.

Left ArrowRight Arrow

Hourly Observations for December 5, 2019

Temp ( °F °C ) Dew Point ( °F °C ) Humidity (%) Winds ( mph kmh ) Pressure ( in mb ) Visibility ( mi km ) Precip ( " mm )
12:51 am 00:51 Mostly Cloudy 55 12.8 47 8.3 74 74 N N/A 29.95 1014 10 16 N/A
1:51 am 01:51 Mostly Cloudy 52 11.1 45 7.2 77 77 ESE 3 6 29.96 1014 10 16 N/A
2:51 am 02:51 Mostly Cloudy 51 10.6 43 6.1 74 74 N N/A 29.97 1015 10 16 N/A
3:51 am 03:51 Mostly Clear 48 8.9 43 6.1 83 83 N N/A 29.97 1015 10 16 N/A
4:51 am 04:51 Mostly Clear 47 8.3 43 6.1 86 86 ENE 3 6 29.98 1015 10 16 N/A
5:51 am 05:51 Cloudy 48 8.9 44 6.7 86 86 NE 3 6 30.00 1016 10 16 N/A
6:51 am 06:51 Cloudy 49 9.4 45 7.2 86 86 SE 3 6 30.03 1017 10 16 N/A
7:51 am 07:51 Cloudy 53 11.7 45 7.2 74 74 N N/A 30.04 1017 10 16 N/A
8:51 am 08:51 Cloudy 55 12.8 48 8.9 77 77 WSW 5 7 30.06 1018 10 16 N/A
9:51 am 09:51 Sunny 57 13.9 48 8.9 72 72 N N/A 30.08 1019 10 16 N/A
10:51 am 10:51 Sunny 58 14.4 48 8.9 70 70 VRB 5 7 30.08 1019 10 16 N/A
11:51 am 11:51 Partly Cloudy 63 17.2 49 9.4 60 60 W 7 11 30.05 1018 10 16 N/A
12:51 pm 12:51 Mostly Cloudy 65 18.3 46 7.8 51 51 W 13 20 30.02 1017 10 16 N/A
1:51 pm 13:51 Partly Cloudy 66 18.9 44 6.7 45 45 WNW 15 24 30.01 1016 10 16 N/A
2:51 pm 14:51 Mostly Sunny 66 18.9 43 6.1 43 43 NW 13 20 30.01 1016 10 16 N/A
3:51 pm 15:51 Sunny 66 18.9 42 5.6 42 42 WNW 8 13 30.01 1016 10 16 N/A
4:51 pm 16:51 Sunny 63 17.2 41 5 45 45 WNW 7 11 30.03 1017 10 16 N/A
5:51 pm 17:51 Clear 57 13.9 43 6.1 60 60 W 7 11 30.06 1018 10 16 N/A
6:51 pm 18:51 Clear 54 12.2 44 6.7 69 69 W 5 7 30.09 1019 10 16 N/A
7:51 pm 19:51 Clear 51 10.6 44 6.7 77 77 N 5 7 30.11 1020 10 16 N/A
8:51 pm 20:51 Clear 50 10 44 6.7 80 80 NNE 6 9 30.13 1020 10 16 N/A
9:51 pm 21:51 Clear 50 10 44 6.7 80 80 N N/A 30.14 1021 10 16 N/A
10:51 pm 22:51 Clear 47 8.3 42 5.6 83 83 ESE 6 9 30.14 1021 10 16 N/A
11:51 pm 23:51 Clear 44 6.7 41 5 89 89 N N/A 30.14 1021 10 16 N/A

Powered by AerisWeather